CW6747 Weather Reports


time (UTC)temp
C
wind
direction
speed
KPH
gust
KPH
rain 1hr
cm
rain 24hr
cm
rain mn
cm
humidity
%
barometer
mb
20260504044526 9 360 9.7 17.7 0.00 0.00 0.00 48 1012.6
20260504043030 10 24 9.7 17.7 0.00 0.00 0.00 47 1012.4
20260504041533 10 16 8.0 20.9 0.00 0.00 0.00 47 1012.4
20260504040030 10 28 6.4 16.1 0.00 0.00 0.00 48 1012.4
20260504034529 9 5 8.0 14.5 0.00 0.00 0.00 48 1012.4
20260504033027 10 32 6.4 17.7 0.00 0.00 0.00 47 1012.3
20260504031526 10 18 6.4 17.7 0.00 0.00 0.00 47 1012.3
20260504030028 10 47 8.0 14.5 0.00 0.00 0.00 47 1012.3
20260504024530 10 5 6.4 14.5 0.00 0.00 0.00 46 1012.4
20260504023028 10 19 6.4 12.9 0.00 0.00 0.00 46 1012.4
20260504021527 10 17 4.8 12.9 0.00 0.00 0.00 46 1012.4
20260504020028 10 35 9.7 20.9 0.00 0.00 0.00 46 1012.3
20260504014528 10 17 3.2 9.7 0.00 0.00 0.00 47 1012.3
20260504013026 10 59 1.6 4.8 0.00 0.00 0.00 47 1012.2
20260504011526 10 38 3.2 8.0 0.00 0.00 0.00 48 1012.2
20260504010027 10 31 1.6 12.9 0.00 0.00 0.00 46 1012.1
20260504004530 10 0 1.6 6.4 0.00 0.00 0.00 46 1012.0
20260504003032 11 31 1.6 8.0 0.00 0.00 0.00 45 1011.9
20260504001531 11 27 4.8 12.9 0.00 0.00 0.00 44 1011.8
20260504000030 11 44 8.0 17.7 0.00 0.00 0.00 42 1011.8
20260503234532 12 44 9.7 20.9 0.00 0.00 0.00 40 1011.7
20260503233037 12 55 11.3 20.9 0.00 0.00 0.00 39 1011.6
20260503231533 12 76 16.1 29.0 0.00 0.00 0.00 38 1011.6
20260503230030 13 58 11.3 25.7 0.00 0.00 0.00 39 1011.5
20260503224528 12 61 9.7 24.1 0.00 0.00 0.00 40 1011.7
20260503223028 12 65 16.1 29.0 0.00 0.00 0.00 39 1011.6
20260503221534 12 34 14.5 25.7 0.00 0.00 0.00 41 1011.7
20260503220028 13 49 19.3 30.6 0.00 0.00 0.00 36 1011.7
20260503214526 13 96 19.3 33.8 0.00 0.00 0.00 38 1011.7
20260503213033 12 67 9.7 32.2 0.00 0.00 0.00 39 1011.6
20260503211530 12 92 16.1 27.4 0.00 0.00 0.00 37 1011.5
20260503210027 13 106 17.7 35.4 0.00 0.00 0.00 37 1011.6
20260503204530 12 39 14.5 32.2 0.00 0.00 0.00 38 1011.6
20260503203031 13 46 14.5 30.6 0.00 0.00 0.00 41 1011.6
20260503201527 13 92 17.7 37.0 0.00 0.00 0.00 38 1011.8
20260503200029 13 54 16.1 29.0 0.00 0.00 0.00 38 1011.9
20260503194530 12 65 14.5 29.0 0.00 0.00 0.00 40 1012.1
20260503193030 12 86 19.3 32.2 0.00 0.00 0.00 39 1012.2
20260503191534 12 71 14.5 25.7 0.00 0.00 0.00 42 1012.4
20260503190030 12 11 17.7 32.2 0.00 0.00 0.00 41 1012.5
20260503184528 12 40 19.3 30.6 0.00 0.00 0.00 41 1012.7
20260503183030 12 79 19.3 30.6 0.00 0.00 0.00 42 1012.8
20260503181530 11 52 6.4 29.0 0.00 0.00 0.00 42 1012.8
20260503180028 11 78 16.1 30.6 0.00 0.00 0.00 42 1013.1
20260503174527 11 66 17.7 30.6 0.00 0.00 0.00 46 1013.1
20260503173030 11 51 19.3 33.8 0.00 0.00 0.00 40 1013.1
20260503171526 11 38 16.1 35.4 0.00 0.00 0.00 44 1013.1
20260503081528 2 68 3.2 12.9 0.00 0.00 0.00 68 1013.1
20260503071526 2 130 4.8 19.3 0.00 0.00 0.00 66 1012.9
20260503054534 3 0 0.0 4.8 0.00 0.08 0.00 65 1012.9